﻿<?xml version="1.0" encoding="utf-8"?><gpx creator="Garmin Desktop App" version="1.1" xsi:schemaLocation="http://www.topografix.com/GPX/1/1 http://www.topografix.com/GPX/1/1/gpx.xsd http://www.garmin.com/xmlschemas/WaypointExtension/v1 http://www8.garmin.com/xmlschemas/WaypointExtensionv1.xsd http://www.garmin.com/xmlschemas/TrackPointExtension/v1 http://www.garmin.com/xmlschemas/TrackPointExtensionv1.xsd http://www.garmin.com/xmlschemas/GpxExtensions/v3 http://www8.garmin.com/xmlschemas/GpxExtensionsv3.xsd http://www.garmin.com/xmlschemas/ActivityExtension/v1 http://www8.garmin.com/xmlschemas/ActivityExtensionv1.xsd http://www.garmin.com/xmlschemas/AdventuresExtensions/v1 http://www8.garmin.com/xmlschemas/AdventuresExtensionv1.xsd http://www.garmin.com/xmlschemas/PressureExtension/v1 http://www.garmin.com/xmlschemas/PressureExtensionv1.xsd http://www.garmin.com/xmlschemas/TripExtensions/v1 http://www.garmin.com/xmlschemas/TripExtensionsv1.xsd http://www.garmin.com/xmlschemas/TripMetaDataExtensions/v1 http://www.garmin.com/xmlschemas/TripMetaDataExtensionsv1.xsd http://www.garmin.com/xmlschemas/ViaPointTransportationModeExtensions/v1 http://www.garmin.com/xmlschemas/ViaPointTransportationModeExtensionsv1.xsd http://www.garmin.com/xmlschemas/CreationTimeExtension/v1 http://www.garmin.com/xmlschemas/CreationTimeExtensionsv1.xsd http://www.garmin.com/xmlschemas/AccelerationExtension/v1 http://www.garmin.com/xmlschemas/AccelerationExtensionv1.xsd http://www.garmin.com/xmlschemas/PowerExtension/v1 http://www.garmin.com/xmlschemas/PowerExtensionv1.xsd http://www.garmin.com/xmlschemas/VideoExtension/v1 http://www.garmin.com/xmlschemas/VideoExtensionv1.xsd" xmlns="http://www.topografix.com/GPX/1/1" xmlns:xsi="http://www.w3.org/2001/XMLSchema-instance" xmlns:wptx1="http://www.garmin.com/xmlschemas/WaypointExtension/v1" xmlns:gpxtrx="http://www.garmin.com/xmlschemas/GpxExtensions/v3" xmlns:gpxtpx="http://www.garmin.com/xmlschemas/TrackPointExtension/v1" xmlns:gpxx="http://www.garmin.com/xmlschemas/GpxExtensions/v3" xmlns:trp="http://www.garmin.com/xmlschemas/TripExtensions/v1" xmlns:adv="http://www.garmin.com/xmlschemas/AdventuresExtensions/v1" xmlns:prs="http://www.garmin.com/xmlschemas/PressureExtension/v1" xmlns:tmd="http://www.garmin.com/xmlschemas/TripMetaDataExtensions/v1" xmlns:vptm="http://www.garmin.com/xmlschemas/ViaPointTransportationModeExtensions/v1" xmlns:ctx="http://www.garmin.com/xmlschemas/CreationTimeExtension/v1" xmlns:gpxacc="http://www.garmin.com/xmlschemas/AccelerationExtension/v1" xmlns:gpxpx="http://www.garmin.com/xmlschemas/PowerExtension/v1" xmlns:vidx1="http://www.garmin.com/xmlschemas/VideoExtension/v1">

  <metadata>
    <link href="http://www.garmin.com">
      <text>Garmin International</text>
    </link>
    <time>2021-10-11T11:24:59Z</time>
    <bounds maxlat="50.337724015116692" maxlon="6.517072962597013" minlat="50.304316012188792" minlon="6.389006031677127" />
  </metadata>

  <trk>
    <name>Schönfeld-rot</name>
    <extensions>
      <gpxx:TrackExtension>
        <gpxx:DisplayColor>DarkGray</gpxx:DisplayColor>
      </gpxx:TrackExtension>
    </extensions>
    <trkseg>
      <trkpt lat="50.309688979759812" lon="6.515921959653497">
        <ele>0</ele>
        <time>1970-01-01T00:00:00Z</time>
      </trkpt>
      <trkpt lat="50.309976981952786" lon="6.515949033200741">
        <ele>0</ele>
        <time>1970-01-01T00:00:00Z</time>
      </trkpt>
      <trkpt lat="50.311566023156047" lon="6.516258995980024">
        <ele>0</ele>
        <time>1970-01-01T00:00:00Z</time>
      </trkpt>
      <trkpt lat="50.313941035419703" lon="6.516711032018066">
        <ele>0</ele>
        <time>1970-01-01T00:00:00Z</time>
      </trkpt>
      <trkpt lat="50.315090026706457" lon="6.517072962597013">
        <ele>0</ele>
        <time>1970-01-01T00:00:00Z</time>
      </trkpt>
      <trkpt lat="50.315302005037665" lon="6.515179993584752">
        <ele>0</ele>
        <time>1970-01-01T00:00:00Z</time>
      </trkpt>
      <trkpt lat="50.315197985619307" lon="6.514553027227521">
        <ele>0</ele>
        <time>1970-01-01T00:00:00Z</time>
      </trkpt>
      <trkpt lat="50.314578982070088" lon="6.513770995661616">
        <ele>0</ele>
        <time>1970-01-01T00:00:00Z</time>
      </trkpt>
      <trkpt lat="50.314502958208323" lon="6.512708002701402">
        <ele>0</ele>
        <time>1970-01-01T00:00:00Z</time>
      </trkpt>
      <trkpt lat="50.315221035853028" lon="6.511841984465718">
        <ele>0</ele>
        <time>1970-01-01T00:00:00Z</time>
      </trkpt>
      <trkpt lat="50.315442988649011" lon="6.510440027341247">
        <ele>0</ele>
        <time>1970-01-01T00:00:00Z</time>
      </trkpt>
      <trkpt lat="50.315380962565541" lon="6.509221969172359">
        <ele>0</ele>
        <time>1970-01-01T00:00:00Z</time>
      </trkpt>
      <trkpt lat="50.315064964815974" lon="6.508312029764056">
        <ele>0</ele>
        <time>1970-01-01T00:00:00Z</time>
      </trkpt>
      <trkpt lat="50.315276021137834" lon="6.507696965709329">
        <ele>0</ele>
        <time>1970-01-01T00:00:00Z</time>
      </trkpt>
      <trkpt lat="50.315103018656373" lon="6.506315963342786">
        <ele>0</ele>
        <time>1970-01-01T00:00:00Z</time>
      </trkpt>
      <trkpt lat="50.31417103484273" lon="6.504356022924185">
        <ele>0</ele>
        <time>1970-01-01T00:00:00Z</time>
      </trkpt>
      <trkpt lat="50.313642974942923" lon="6.502824984490871">
        <ele>0</ele>
        <time>1970-01-01T00:00:00Z</time>
      </trkpt>
      <trkpt lat="50.313982022926211" lon="6.501867016777396">
        <ele>0</ele>
        <time>1970-01-01T00:00:00Z</time>
      </trkpt>
      <trkpt lat="50.314499018713832" lon="6.501222029328346">
        <ele>0</ele>
        <time>1970-01-01T00:00:00Z</time>
      </trkpt>
      <trkpt lat="50.315208965912461" lon="6.502027027308941">
        <ele>0</ele>
        <time>1970-01-01T00:00:00Z</time>
      </trkpt>
      <trkpt lat="50.317093972116709" lon="6.501871962100267">
        <ele>0</ele>
        <time>1970-01-01T00:00:00Z</time>
      </trkpt>
      <trkpt lat="50.317401001229882" lon="6.502768993377686">
        <ele>0</ele>
        <time>1970-01-01T00:00:00Z</time>
      </trkpt>
      <trkpt lat="50.317972982302308" lon="6.503048026934266">
        <ele>0</ele>
        <time>1970-01-01T00:00:00Z</time>
      </trkpt>
      <trkpt lat="50.319231022149324" lon="6.502589033916593">
        <ele>0</ele>
        <time>1970-01-01T00:00:00Z</time>
      </trkpt>
      <trkpt lat="50.319910040125251" lon="6.501135025173426">
        <ele>0</ele>
        <time>1970-01-01T00:00:00Z</time>
      </trkpt>
      <trkpt lat="50.321824969723821" lon="6.502368003129959">
        <ele>0</ele>
        <time>1970-01-01T00:00:00Z</time>
      </trkpt>
      <trkpt lat="50.322872959077358" lon="6.503871968016028">
        <ele>0</ele>
        <time>1970-01-01T00:00:00Z</time>
      </trkpt>
      <trkpt lat="50.323535967618227" lon="6.505003022029996">
        <ele>0</ele>
        <time>1970-01-01T00:00:00Z</time>
      </trkpt>
      <trkpt lat="50.325184017419815" lon="6.503441976383328">
        <ele>0</ele>
        <time>1970-01-01T00:00:00Z</time>
      </trkpt>
      <trkpt lat="50.327829010784626" lon="6.502249985933304">
        <ele>0</ele>
        <time>1970-01-01T00:00:00Z</time>
      </trkpt>
      <trkpt lat="50.328996023163199" lon="6.50091097690165">
        <ele>0</ele>
        <time>1970-01-01T00:00:00Z</time>
      </trkpt>
      <trkpt lat="50.33093199133873" lon="6.501062018796802">
        <ele>0</ele>
        <time>1970-01-01T00:00:00Z</time>
      </trkpt>
      <trkpt lat="50.332706021144986" lon="6.500322986394167">
        <ele>0</ele>
        <time>1970-01-01T00:00:00Z</time>
      </trkpt>
      <trkpt lat="50.333455028012395" lon="6.499651009216905">
        <ele>0</ele>
        <time>1970-01-01T00:00:00Z</time>
      </trkpt>
      <trkpt lat="50.334401009604335" lon="6.499742036685348">
        <ele>0</ele>
        <time>1970-01-01T00:00:00Z</time>
      </trkpt>
      <trkpt lat="50.336464969441295" lon="6.498721037060022">
        <ele>0</ele>
        <time>1970-01-01T00:00:00Z</time>
      </trkpt>
      <trkpt lat="50.335103999823332" lon="6.498146038502455">
        <ele>0</ele>
        <time>1970-01-01T00:00:00Z</time>
      </trkpt>
      <trkpt lat="50.334590021520853" lon="6.497231991961598">
        <ele>0</ele>
        <time>1970-01-01T00:00:00Z</time>
      </trkpt>
      <trkpt lat="50.332756983116269" lon="6.494770981371403">
        <ele>0</ele>
        <time>1970-01-01T00:00:00Z</time>
      </trkpt>
      <trkpt lat="50.333356037735939" lon="6.491719968616962">
        <ele>0</ele>
        <time>1970-01-01T00:00:00Z</time>
      </trkpt>
      <trkpt lat="50.333222011104226" lon="6.490505011752248">
        <ele>0</ele>
        <time>1970-01-01T00:00:00Z</time>
      </trkpt>
      <trkpt lat="50.332491025328636" lon="6.489110011607409">
        <ele>0</ele>
        <time>1970-01-01T00:00:00Z</time>
      </trkpt>
      <trkpt lat="50.331946033984423" lon="6.48720002733171">
        <ele>0</ele>
        <time>1970-01-01T00:00:00Z</time>
      </trkpt>
      <trkpt lat="50.333309015259147" lon="6.487873010337353">
        <ele>0</ele>
        <time>1970-01-01T00:00:00Z</time>
      </trkpt>
      <trkpt lat="50.334706027060747" lon="6.487995972856879">
        <ele>0</ele>
        <time>1970-01-01T00:00:00Z</time>
      </trkpt>
      <trkpt lat="50.33546500839293" lon="6.488601984456182">
        <ele>0</ele>
        <time>1970-01-01T00:00:00Z</time>
      </trkpt>
      <trkpt lat="50.336236981675029" lon="6.488955030217767">
        <ele>0</ele>
        <time>1970-01-01T00:00:00Z</time>
      </trkpt>
      <trkpt lat="50.337724015116692" lon="6.488680019974709">
        <ele>0</ele>
        <time>1970-01-01T00:00:00Z</time>
      </trkpt>
      <trkpt lat="50.335968006402254" lon="6.486075008288026">
        <ele>0</ele>
        <time>1970-01-01T00:00:00Z</time>
      </trkpt>
      <trkpt lat="50.332832001149654" lon="6.481197997927666">
        <ele>0</ele>
        <time>1970-01-01T00:00:00Z</time>
      </trkpt>
      <trkpt lat="50.332538969814777" lon="6.480116983875632">
        <ele>0</ele>
        <time>1970-01-01T00:00:00Z</time>
      </trkpt>
      <trkpt lat="50.331625007092953" lon="6.479028007015586">
        <ele>0</ele>
        <time>1970-01-01T00:00:00Z</time>
      </trkpt>
      <trkpt lat="50.331101976335049" lon="6.477721016854048">
        <ele>0</ele>
        <time>1970-01-01T00:00:00Z</time>
      </trkpt>
      <trkpt lat="50.33103902824223" lon="6.476881988346577">
        <ele>0</ele>
        <time>1970-01-01T00:00:00Z</time>
      </trkpt>
      <trkpt lat="50.330609958618879" lon="6.47615997120738">
        <ele>0</ele>
        <time>1970-01-01T00:00:00Z</time>
      </trkpt>
      <trkpt lat="50.330282980576158" lon="6.475179959088564">
        <ele>0</ele>
        <time>1970-01-01T00:00:00Z</time>
      </trkpt>
      <trkpt lat="50.329660959541798" lon="6.474272031337023">
        <ele>0</ele>
        <time>1970-01-01T00:00:00Z</time>
      </trkpt>
      <trkpt lat="50.329398019239306" lon="6.471700966358185">
        <ele>0</ele>
        <time>1970-01-01T00:00:00Z</time>
      </trkpt>
      <trkpt lat="50.329214036464691" lon="6.471093026921153">
        <ele>0</ele>
        <time>1970-01-01T00:00:00Z</time>
      </trkpt>
      <trkpt lat="50.329899005591869" lon="6.469117999076843">
        <ele>0</ele>
        <time>1970-01-01T00:00:00Z</time>
      </trkpt>
      <trkpt lat="50.329319983720779" lon="6.466451967135072">
        <ele>0</ele>
        <time>1970-01-01T00:00:00Z</time>
      </trkpt>
      <trkpt lat="50.327748963609338" lon="6.468220967799425">
        <ele>0</ele>
        <time>1970-01-01T00:00:00Z</time>
      </trkpt>
      <trkpt lat="50.327137000858784" lon="6.467803968116641">
        <ele>0</ele>
        <time>1970-01-01T00:00:00Z</time>
      </trkpt>
      <trkpt lat="50.326639031991363" lon="6.466791015118361">
        <ele>0</ele>
        <time>1970-01-01T00:00:00Z</time>
      </trkpt>
      <trkpt lat="50.326490001752973" lon="6.465731961652637">
        <ele>0</ele>
        <time>1970-01-01T00:00:00Z</time>
      </trkpt>
      <trkpt lat="50.325978035107255" lon="6.463300958275795">
        <ele>0</ele>
        <time>1970-01-01T00:00:00Z</time>
      </trkpt>
      <trkpt lat="50.32517303712666" lon="6.462276019155979">
        <ele>0</ele>
        <time>1970-01-01T00:00:00Z</time>
      </trkpt>
      <trkpt lat="50.324654029682279" lon="6.462374003604055">
        <ele>0</ele>
        <time>1970-01-01T00:00:00Z</time>
      </trkpt>
      <trkpt lat="50.324062015861273" lon="6.462855041027069">
        <ele>0</ele>
        <time>1970-01-01T00:00:00Z</time>
      </trkpt>
      <trkpt lat="50.323341004550457" lon="6.462795026600361">
        <ele>0</ele>
        <time>1970-01-01T00:00:00Z</time>
      </trkpt>
      <trkpt lat="50.323100024834275" lon="6.463285032659769">
        <ele>0</ele>
        <time>1970-01-01T00:00:00Z</time>
      </trkpt>
      <trkpt lat="50.322970021516085" lon="6.463909987360239">
        <ele>0</ele>
        <time>1970-01-01T00:00:00Z</time>
      </trkpt>
      <trkpt lat="50.322078019380569" lon="6.465067025274038">
        <ele>0</ele>
        <time>1970-01-01T00:00:00Z</time>
      </trkpt>
      <trkpt lat="50.321981040760875" lon="6.465971013531089">
        <ele>0</ele>
        <time>1970-01-01T00:00:00Z</time>
      </trkpt>
      <trkpt lat="50.321118962019682" lon="6.466438975185156">
        <ele>0</ele>
        <time>1970-01-01T00:00:00Z</time>
      </trkpt>
      <trkpt lat="50.320635996758938" lon="6.467376993969083">
        <ele>0</ele>
        <time>1970-01-01T00:00:00Z</time>
      </trkpt>
      <trkpt lat="50.319323977455497" lon="6.467826012521982">
        <ele>0</ele>
        <time>1970-01-01T00:00:00Z</time>
      </trkpt>
      <trkpt lat="50.318455025553703" lon="6.467127967625856">
        <ele>0</ele>
        <time>1970-01-01T00:00:00Z</time>
      </trkpt>
      <trkpt lat="50.318046994507313" lon="6.466152984648943">
        <ele>0</ele>
        <time>1970-01-01T00:00:00Z</time>
      </trkpt>
      <trkpt lat="50.317534022033215" lon="6.463651992380619">
        <ele>0</ele>
        <time>1970-01-01T00:00:00Z</time>
      </trkpt>
      <trkpt lat="50.317810038104653" lon="6.461895983666182">
        <ele>0</ele>
        <time>1970-01-01T00:00:00Z</time>
      </trkpt>
      <trkpt lat="50.318435998633504" lon="6.460499977692962">
        <ele>0</ele>
        <time>1970-01-01T00:00:00Z</time>
      </trkpt>
      <trkpt lat="50.317792017012835" lon="6.460267966613174">
        <ele>0</ele>
        <time>1970-01-01T00:00:00Z</time>
      </trkpt>
      <trkpt lat="50.316247986629605" lon="6.457091979682446">
        <ele>0</ele>
        <time>1970-01-01T00:00:00Z</time>
      </trkpt>
      <trkpt lat="50.312953982502222" lon="6.452410016208887">
        <ele>0</ele>
        <time>1970-01-01T00:00:00Z</time>
      </trkpt>
      <trkpt lat="50.312393987551332" lon="6.451498987153173">
        <ele>0</ele>
        <time>1970-01-01T00:00:00Z</time>
      </trkpt>
      <trkpt lat="50.311332000419497" lon="6.445307023823261">
        <ele>0</ele>
        <time>1970-01-01T00:00:00Z</time>
      </trkpt>
      <trkpt lat="50.31138296239078" lon="6.443099984899163">
        <ele>0</ele>
        <time>1970-01-01T00:00:00Z</time>
      </trkpt>
      <trkpt lat="50.312174968421459" lon="6.442355001345277">
        <ele>0</ele>
        <time>1970-01-01T00:00:00Z</time>
      </trkpt>
      <trkpt lat="50.313794016838074" lon="6.44152401946485">
        <ele>0</ele>
        <time>1970-01-01T00:00:00Z</time>
      </trkpt>
      <trkpt lat="50.313424039632082" lon="6.440660012885928">
        <ele>0</ele>
        <time>1970-01-01T00:00:00Z</time>
      </trkpt>
      <trkpt lat="50.312731023877859" lon="6.440247036516666">
        <ele>0</ele>
        <time>1970-01-01T00:00:00Z</time>
      </trkpt>
      <trkpt lat="50.315250959247351" lon="6.431349981576204">
        <ele>0</ele>
        <time>1970-01-01T00:00:00Z</time>
      </trkpt>
      <trkpt lat="50.313727967441082" lon="6.429157024249435">
        <ele>0</ele>
        <time>1970-01-01T00:00:00Z</time>
      </trkpt>
      <trkpt lat="50.313424039632082" lon="6.427629003301263">
        <ele>0</ele>
        <time>1970-01-01T00:00:00Z</time>
      </trkpt>
      <trkpt lat="50.31290402635932" lon="6.426490992307663">
        <ele>0</ele>
        <time>1970-01-01T00:00:00Z</time>
      </trkpt>
      <trkpt lat="50.312695987522602" lon="6.424816958606243">
        <ele>0</ele>
        <time>1970-01-01T00:00:00Z</time>
      </trkpt>
      <trkpt lat="50.31193901784718" lon="6.424339022487402">
        <ele>0</ele>
        <time>1970-01-01T00:00:00Z</time>
      </trkpt>
      <trkpt lat="50.310889016836882" lon="6.422780994325876">
        <ele>0</ele>
        <time>1970-01-01T00:00:00Z</time>
      </trkpt>
      <trkpt lat="50.310660023242235" lon="6.421782039105892">
        <ele>0</ele>
        <time>1970-01-01T00:00:00Z</time>
      </trkpt>
      <trkpt lat="50.309299975633621" lon="6.419271994382143">
        <ele>0</ele>
        <time>1970-01-01T00:00:00Z</time>
      </trkpt>
      <trkpt lat="50.308128017932177" lon="6.417903983965516">
        <ele>0</ele>
        <time>1970-01-01T00:00:00Z</time>
      </trkpt>
      <trkpt lat="50.307115986943245" lon="6.416048984974623">
        <ele>0</ele>
        <time>1970-01-01T00:00:00Z</time>
      </trkpt>
      <trkpt lat="50.304835019633174" lon="6.414979035034776">
        <ele>0</ele>
        <time>1970-01-01T00:00:00Z</time>
      </trkpt>
      <trkpt lat="50.304448027163744" lon="6.414550971239805">
        <ele>0</ele>
        <time>1970-01-01T00:00:00Z</time>
      </trkpt>
      <trkpt lat="50.304316012188792" lon="6.413870025426149">
        <ele>0</ele>
        <time>1970-01-01T00:00:00Z</time>
      </trkpt>
      <trkpt lat="50.305946040898561" lon="6.410749023780227">
        <ele>0</ele>
        <time>1970-01-01T00:00:00Z</time>
      </trkpt>
      <trkpt lat="50.306254997849464" lon="6.408078968524933">
        <ele>0</ele>
        <time>1970-01-01T00:00:00Z</time>
      </trkpt>
      <trkpt lat="50.306618018075824" lon="6.405827002599835">
        <ele>0</ele>
        <time>1970-01-01T00:00:00Z</time>
      </trkpt>
      <trkpt lat="50.306708039715886" lon="6.407042965292931">
        <ele>0</ele>
        <time>1970-01-01T00:00:00Z</time>
      </trkpt>
      <trkpt lat="50.306994030252099" lon="6.407772023230791">
        <ele>0</ele>
        <time>1970-01-01T00:00:00Z</time>
      </trkpt>
      <trkpt lat="50.307656032964587" lon="6.408395972102881">
        <ele>0</ele>
        <time>1970-01-01T00:00:00Z</time>
      </trkpt>
      <trkpt lat="50.30903703533113" lon="6.41105898655951">
        <ele>0</ele>
        <time>1970-01-01T00:00:00Z</time>
      </trkpt>
      <trkpt lat="50.309759974479675" lon="6.405164999887347">
        <ele>0</ele>
        <time>1970-01-01T00:00:00Z</time>
      </trkpt>
      <trkpt lat="50.308707961812615" lon="6.40276500955224">
        <ele>0</ele>
        <time>1970-01-01T00:00:00Z</time>
      </trkpt>
      <trkpt lat="50.308473017066717" lon="6.402327977120876">
        <ele>0</ele>
        <time>1970-01-01T00:00:00Z</time>
      </trkpt>
      <trkpt lat="50.308833019807935" lon="6.39913497492671">
        <ele>0</ele>
        <time>1970-01-01T00:00:00Z</time>
      </trkpt>
      <trkpt lat="50.310203041881323" lon="6.398470960557461">
        <ele>0</ele>
        <time>1970-01-01T00:00:00Z</time>
      </trkpt>
      <trkpt lat="50.309597030282021" lon="6.395498989149928">
        <ele>0</ele>
        <time>1970-01-01T00:00:00Z</time>
      </trkpt>
      <trkpt lat="50.309114987030625" lon="6.394037017598748">
        <ele>0</ele>
        <time>1970-01-01T00:00:00Z</time>
      </trkpt>
      <trkpt lat="50.308261038735509" lon="6.392847960814834">
        <ele>0</ele>
        <time>1970-01-01T00:00:00Z</time>
      </trkpt>
      <trkpt lat="50.30734003521502" lon="6.392674036324024">
        <ele>0</ele>
        <time>1970-01-01T00:00:00Z</time>
      </trkpt>
      <trkpt lat="50.307400971651077" lon="6.389793008565903">
        <ele>0</ele>
        <time>1970-01-01T00:00:00Z</time>
      </trkpt>
      <trkpt lat="50.307716969400644" lon="6.389031009748578">
        <ele>0</ele>
        <time>1970-01-01T00:00:00Z</time>
      </trkpt>
      <trkpt lat="50.307653015479445" lon="6.389006031677127">
        <ele>0</ele>
        <time>1970-01-01T00:00:00Z</time>
      </trkpt>
    </trkseg>
  </trk>

</gpx>